Accueil
METAR-TAF:

METAR-TAF

Aéroports :

Quakertown Airport

Quakertown, Pennsylvanie, États-Unis

latitude: 40-26-06N, longitude: 075-22-54W, altitude: 160 m

Observation

Le bulletin a été fait il y a 16 minutes, à 11:15 UTC
Vent 7 kt de nord-ouest avec des rafales jusqu'à 13 kt
Température 21°C
Humidité 78%
Pression 1018 hPa
Visibilité: 16.1 km
Ciel clair

METAR: KUKT 221115Z AUTO 32007G13KT 10SM CLR 21/17 A3007 RMK A01

Heure: 07:31 (11:31 UTC)


TAF: absent

Observations et prévisions météorologiques de plus de 4000 aéroports (messages METAR et TAF).

Les stations disponibles sont représentées par des disques jaunes et rouges sur la carte.

Passer la souris dessus pour voir le nom de la station.

Cliquer dessus pour voir les observations et prévisions météorologiques.

Pour changer de carte: cliquez sur les boutons verts avec une croix noire pour zoomer, sur le bouton vert avec un tiret pour effectuer un zoom arrière, ou sur les flèches vertes pour les cartes adjacentes.


METAR-TAF: